�������l�o���
Date,Time,MP-1(��Sv/h),MP-2(��Sv/h),MP-3(��Sv/h),MP-4(��Sv/h),MP-5(��Sv/h),MP-6(��Sv/h),MP-7(��Sv/h),MP-8(��Sv/h),����,����(m/s),���J
2017/02/03,00:00,1.067,1.812,1.177,2.046,1.422,0.559,1.024,0.950,��,3.7,��
2017/02/03,00:10,1.067,1.808,1.177,2.042,1.423,0.559,1.024,0.953,��,2.3,��
2017/02/03,00:20,1.067,1.805,1.178,2.044,1.425,0.560,1.026,0.951,��쐼,2.5,��
2017/02/03,00:30,1.067,1.808,1.176,2.046,1.423,0.559,1.025,0.951,��,3.1,��
2017/02/03,00:40,1.068,1.807,1.176,2.044,1.422,0.560,1.025,0.952,��,1.7,��
2017/02/03,00:50,1.067,1.810,1.176,2.041,1.421,0.559,1.027,0.953,��,1.7,��
2017/02/03,01:00,1.068,1.809,1.177,2.044,1.422,0.559,1.025,0.952,��,3.1,��
2017/02/03,01:10,1.069,1.810,1.176,2.045,1.422,0.560,1.023,0.953,��,2.6,��
2017/02/03,01:20,1.070,1.809,1.174,2.044,1.422,0.560,1.023,0.951,��,3.0,��
2017/02/03,01:30,1.068,1.807,1.175,2.046,1.422,0.559,1.027,0.950,��,2.3,��
2017/02/03,01:40,1.068,1.807,1.177,2.046,1.421,0.559,1.026,0.953,��,2.0,��
2017/02/03,01:50,1.070,1.807,1.174,2.044,1.423,0.557,1.025,0.953,��쓌,2.0,��
2017/02/03,02:00,1.070,1.808,1.175,2.048,1.422,0.559,1.024,0.952,�쓌,1.5,��
2017/02/03,02:10,1.069,1.808,1.175,2.041,1.424,0.558,1.025,0.949,��,1.2,��
2017/02/03,02:20,1.067,1.809,1.175,2.045,1.423,0.559,1.026,0.952,�k,0.9,��
2017/02/03,02:30,1.069,1.810,1.177,2.043,1.421,0.560,1.024,0.952,���k��,1.1,��
2017/02/03,02:40,1.068,1.805,1.175,2.045,1.423,0.560,1.025,0.950,���k��,1.2,��
2017/02/03,02:50,1.071,1.807,1.178,2.044,1.425,0.559,1.025,0.952,�k�k��,2.3,��
2017/02/03,03:00,1.069,1.809,1.175,2.046,1.424,0.560,1.025,0.952,�k,3.1,��
2017/02/03,03:10,1.069,1.806,1.177,2.042,1.421,0.560,1.025,0.950,�k�k��,3.2,��
2017/02/03,03:20,1.070,1.810,1.176,2.045,1.419,0.560,1.025,0.952,�k,5.2,��
2017/02/03,03:30,1.067,1.805,1.176,2.043,1.421,0.558,1.025,0.955,�k,5.5,��
2017/02/03,03:40,1.070,1.809,1.175,2.044,1.423,0.559,1.026,0.952,�k�k��,6.0,��
2017/02/03,03:50,1.069,1.806,1.176,2.046,1.425,0.560,1.025,0.951,�k�k��,6.3,��
2017/02/03,04:00,1.070,1.809,1.176,2.045,1.422,0.558,1.025,0.952,�k�k��,4.3,��
2017/02/03,04:10,1.068,1.812,1.178,2.044,1.422,0.558,1.026,0.952,�k�k��,5.2,��
2017/02/03,04:20,1.070,1.807,1.176,2.046,1.418,0.561,1.027,0.952,�k�k��,5.4,��
2017/02/03,04:30,1.068,1.806,1.174,2.047,1.419,0.560,1.025,0.951,�k��,6.8,��
2017/02/03,04:40,1.069,1.807,1.177,2.047,1.421,0.561,1.026,0.952,�k��,7.5,��
2017/02/03,04:50,1.069,1.806,1.176,2.043,1.425,0.559,1.026,0.953,�k��,7.2,��
2017/02/03,05:00,1.070,1.807,1.176,2.043,1.422,0.559,1.027,0.953,�k��,7.6,��
2017/02/03,05:10,1.067,1.811,1.176,2.047,1.421,0.559,1.026,0.952,�k��,6.6,��
2017/02/03,05:20,1.067,1.813,1.176,2.044,1.427,0.559,1.026,0.953,�k��,7.9,��
2017/02/03,05:30,1.068,1.809,1.176,2.048,1.424,0.559,1.025,0.952,�k��,7.0,��
2017/02/03,05:40,1.069,1.806,1.175,2.042,1.424,0.558,1.025,0.951,�k��,8.6,��
2017/02/03,05:50,1.067,1.809,1.176,2.045,1.421,0.557,1.025,0.951,�k��,6.7,��
2017/02/03,06:00,1.069,1.807,1.173,2.045,1.423,0.559,1.026,0.951,�k��,8.1,��
2017/02/03,06:10,1.070,1.810,1.172,2.046,1.422,0.559,1.026,0.953,�k��,6.0,��
2017/02/03,06:20,1.069,1.809,1.173,2.048,1.422,0.560,1.026,0.953,���k��,7.6,��
2017/02/03,06:30,1.068,1.810,1.174,2.044,1.421,0.557,1.026,0.952,���k��,6.3,��
2017/02/03,06:40,1.070,1.807,1.174,2.045,1.421,0.560,1.023,0.951,���k��,4.1,��
2017/02/03,06:50,1.067,1.807,1.171,2.048,1.420,0.560,1.025,0.951,���k��,4.7,��
2017/02/03,07:00,1.068,1.807,1.174,2.046,1.424,0.559,1.023,0.951,���k��,3.7,��
2017/02/03,07:10,1.067,1.807,1.174,2.046,1.420,0.559,1.024,0.951,�k��,2.8,��
2017/02/03,07:20,1.068,1.808,1.175,2.043,1.421,0.560,1.025,0.950,�k��,3.4,��
2017/02/03,07:30,1.069,1.809,1.176,2.045,1.420,0.558,1.024,0.952,���k��,4.0,��
2017/02/03,07:40,1.070,1.807,1.176,2.043,1.421,0.558,1.024,0.951,�k��,3.1,��
2017/02/03,07:50,1.067,1.809,1.177,2.045,1.422,0.559,1.024,0.952,�k��,4.5,��
2017/02/03,08:00,1.069,1.812,1.179,2.048,1.423,0.557,1.023,0.951,���k��,4.2,��
2017/02/03,08:10,1.068,1.808,1.176,2.044,1.425,0.558,1.025,0.951,���k��,4.6,��
2017/02/03,08:20,1.069,1.808,1.174,2.046,1.424,0.559,1.025,0.952,���k��,5.8,��
2017/02/03,08:30,1.069,1.804,1.176,2.046,1.420,0.559,1.024,0.952,���k��,6.4,��
2017/02/03,08:40,1.067,1.803,1.176,2.047,1.420,0.559,1.025,0.952,���k��,6.6,��
2017/02/03,08:50,1.069,1.805,1.177,2.047,1.424,0.558,1.025,0.951,���k��,7.4,��
2017/02/03,09:00,1.070,1.800,1.176,2.049,1.421,0.560,1.027,0.951,�k��,9.3,��
2017/02/03,09:10,1.070,1.803,1.176,2.046,1.422,0.559,1.027,0.952,�k��,6.5,��
2017/02/03,09:20,1.068,1.805,1.177,2.048,1.422,0.559,1.024,0.951,�k��,7.0,��
2017/02/03,09:30,1.071,1.795,1.180,2.045,1.421,0.557,1.025,0.953,�k��,7.1,��
2017/02/03,09:40,1.070,1.796,1.178,2.047,1.424,0.560,1.026,0.953,�k��,7.4,��
2017/02/03,09:50,1.072,1.799,1.179,2.049,1.424,0.557,1.026,0.956,�k�k��,5.5,��
2017/02/03,10:00,1.070,1.797,1.179,2.048,1.421,0.560,1.027,0.952,�k��,5.4,��
2017/02/03,10:10,1.072,1.799,1.178,2.047,1.424,0.558,1.025,0.953,�k��,4.8,��
2017/02/03,10:20,1.073,1.800,1.178,2.048,1.425,0.559,1.025,0.954,�k��,6.4,��
2017/02/03,10:30,1.070,1.797,1.183,2.049,1.424,0.562,1.026,0.952,�k��,7.9,��
2017/02/03,10:40,1.072,1.798,1.184,2.052,1.424,0.561,1.028,0.952,�k�k��,6.7,��
2017/02/03,10:50,1.072,1.803,1.181,2.052,1.424,0.561,1.025,0.955,�k��,7.3,��
2017/02/03,11:00,1.073,1.805,1.183,2.047,1.425,0.562,1.027,0.954,�k��,5.6,��
2017/02/03,11:10,1.075,1.803,1.184,2.052,1.424,0.561,1.026,0.954,�k��,6.8,��
2017/02/03,11:20,1.069,1.805,1.180,2.052,1.427,0.561,1.026,0.955,�k��,6.5,��
2017/02/03,11:30,1.072,1.803,1.182,2.049,1.428,0.560,1.025,0.952,�k��,9.2,��
2017/02/03,11:40,1.073,1.802,1.180,2.049,1.430,0.561,1.024,0.954,�k��,8.5,��
2017/02/03,11:50,1.074,1.802,1.180,2.052,1.425,0.560,1.024,0.956,�k��,6.1,��
2017/02/03,12:00,1.077,1.803,1.179,2.049,1.427,0.561,1.023,0.956,�k�k��,8.1,��
2017/02/03,12:10,1.075,1.805,1.179,2.052,1.427,0.560,1.024,0.954,�k,8.2,��
2017/02/03,12:20,1.075,1.801,1.178,2.052,1.426,0.560,1.024,0.954,�k�k��,7.7,��
2017/02/03,12:30,1.075,1.807,1.182,2.055,1.429,0.561,1.025,0.955,�k��,8.5,��
2017/02/03,12:40,1.075,1.804,1.181,2.054,1.428,0.563,1.024,0.956,�k��,8.0,��
2017/02/03,12:50,1.077,1.804,1.184,2.052,1.428,0.562,1.027,0.954,�k��,7.2,��
2017/02/03,13:00,1.076,1.807,1.184,2.058,1.431,0.563,1.027,0.954,�k��,5.7,��
2017/02/03,13:10,1.077,1.806,1.182,2.055,1.426,0.562,1.024,0.956,�k��,3.2,��
2017/02/03,13:20,1.078,1.803,1.180,2.054,1.429,0.563,1.026,0.953,�k��,5.6,��
2017/02/03,13:30,1.077,1.809,1.185,2.051,1.430,0.562,1.026,0.956,���k��,4.3,��
2017/02/03,13:40,1.078,1.812,1.185,2.054,1.429,0.561,1.026,0.953,�k��,2.6,��
2017/02/03,13:50,1.076,1.813,1.184,2.057,1.430,0.562,1.027,0.956,���k��,3.1,��
2017/02/03,14:00,1.077,1.809,1.185,2.056,1.428,0.563,1.028,0.954,�k��,3.9,��
2017/02/03,14:10,1.077,1.811,1.187,2.054,1.427,0.562,1.026,0.955,���k��,5.0,��
2017/02/03,14:20,1.080,1.812,1.185,2.058,1.430,0.562,1.028,0.954,�k�k��,3.1,��
2017/02/03,14:30,1.080,1.808,1.184,2.057,1.431,0.563,1.027,0.952,��,4.6,��
2017/02/03,14:40,1.079,1.809,1.189,2.057,1.433,0.562,1.029,0.953,�k��,4.7,��
2017/02/03,14:50,1.078,1.811,1.188,2.060,1.430,0.564,1.030,0.954,�k�k��,6.7,��
2017/02/03,15:00,1.079,1.808,1.188,2.056,1.432,0.566,1.028,0.952,�k��,3.5,��
2017/02/03,15:10,1.077,1.810,1.188,2.058,1.429,0.562,1.029,0.953,���k��,2.9,��
2017/02/03,15:20,1.080,1.812,1.187,2.054,1.430,0.561,1.029,0.954,���k��,5.9,��
2017/02/03,15:30,1.077,1.814,1.188,2.056,1.430,0.563,1.029,0.954,���k��,5.2,��
2017/02/03,15:40,1.082,1.815,1.187,2.057,1.431,0.562,1.029,0.956,��,6.0,��
2017/02/03,15:50,1.079,1.817,1.187,2.057,1.426,0.562,1.030,0.954,���k��,3.5,��
2017/02/03,16:00,1.077,1.818,1.186,2.057,1.431,0.562,1.029,0.953,��,2.6,��
2017/02/03,16:10,1.079,1.817,1.186,2.055,1.431,0.562,1.029,0.953,�k��,2.8,��
2017/02/03,16:20,1.076,1.814,1.186,2.058,1.431,0.562,1.028,0.953,���k��,3.0,��
2017/02/03,16:30,1.078,1.816,1.185,2.054,1.431,0.563,1.030,0.953,��,2.6,��
2017/02/03,16:40,1.078,1.814,1.187,2.056,1.433,0.561,1.029,0.954,���k��,3.3,��
2017/02/03,16:50,1.078,1.814,1.185,2.056,1.429,0.562,1.028,0.953,�k��,5.0,��
2017/02/03,17:00,1.077,1.813,1.184,2.055,1.430,0.561,1.028,0.954,���k��,4.7,��
2017/02/03,17:10,1.077,1.816,1.184,2.054,1.431,0.563,1.028,0.953,��,7.8,��
2017/02/03,17:20,1.076,1.813,1.185,2.054,1.429,0.560,1.027,0.956,���k��,7.9,��
2017/02/03,17:30,1.075,1.815,1.185,2.054,1.428,0.561,1.030,0.954,���k��,7.4,��
2017/02/03,17:40,1.077,1.811,1.185,2.054,1.424,0.560,1.029,0.951,���k��,7.4,��
2017/02/03,17:50,1.074,1.813,1.184,2.055,1.430,0.560,1.028,0.952,���k��,4.1,��
2017/02/03,18:00,1.073,1.812,1.181,2.056,1.430,0.561,1.027,0.954,���쐼,2.0,��
2017/02/03,18:10,1.076,1.813,1.184,2.052,1.428,0.561,1.027,0.952,��,1.5,��
2017/02/03,18:20,1.072,1.809,1.184,2.052,1.430,0.561,1.027,0.953,��,2.0,��
2017/02/03,18:30,1.073,1.813,1.184,2.053,1.427,0.561,1.028,0.952,�k��,4.2,��
2017/02/03,18:40,1.075,1.812,1.182,2.055,1.429,0.561,1.026,0.951,�k��,4.6,��
2017/02/03,18:50,1.074,1.811,1.184,2.052,1.429,0.562,1.026,0.952,�k�k��,3.3,��
2017/02/03,19:00,1.073,1.812,1.183,2.054,1.431,0.561,1.028,0.952,�k�k��,2.5,��
2017/02/03,19:10,1.072,1.815,1.182,2.052,1.429,0.562,1.026,0.952,�k�k��,2.0,��
2017/02/03,19:20,1.072,1.811,1.180,2.048,1.428,0.560,1.028,0.955,�k�k��,2.3,��
2017/02/03,19:30,1.076,1.814,1.182,2.052,1.427,0.559,1.025,0.953,�k�k��,3.3,��
2017/02/03,19:40,1.073,1.809,1.179,2.050,1.430,0.561,1.024,0.952,�k�k��,3.6,��
2017/02/03,19:50,1.071,1.811,1.180,2.050,1.424,0.559,1.026,0.953,�k��,2.2,��
2017/02/03,20:00,1.072,1.809,1.181,2.050,1.428,0.560,1.026,0.953,�k,2.0,��
2017/02/03,20:10,1.073,1.808,1.182,2.049,1.429,0.559,1.025,0.951,�k�k��,2.6,��
2017/02/03,20:20,1.073,1.811,1.180,2.050,1.428,0.559,1.024,0.952,�k�k��,1.7,��
2017/02/03,20:30,1.072,1.812,1.180,2.052,1.429,0.559,1.024,0.952,�k��,2.9,��
2017/02/03,20:40,1.073,1.810,1.182,2.055,1.429,0.560,1.026,0.951,���k��,3.2,��
2017/02/03,20:50,1.070,1.810,1.181,2.050,1.430,0.558,1.027,0.952,���k��,2.3,��
2017/02/03,21:00,1.073,1.812,1.180,2.054,1.429,0.561,1.026,0.952,���k��,3.2,��
2017/02/03,21:10,1.072,1.813,1.182,2.052,1.427,0.559,1.027,0.951,���k��,4.7,��
2017/02/03,21:20,1.074,1.808,1.180,2.051,1.427,0.560,1.026,0.953,��,5.2,��
2017/02/03,21:30,1.071,1.811,1.180,2.051,1.427,0.560,1.027,0.954,���k��,3.8,��
2017/02/03,21:40,1.071,1.810,1.183,2.052,1.428,0.561,1.026,0.952,�k��,3.8,��
2017/02/03,21:50,1.073,1.810,1.178,2.053,1.431,0.562,1.025,0.952,�k��,2.3,��
2017/02/03,22:00,1.073,1.811,1.178,2.051,1.427,0.561,1.026,0.951,���k��,2.3,��
2017/02/03,22:10,1.068,1.809,1.179,2.052,1.429,0.559,1.024,0.952,�k�k��,2.6,��
2017/02/03,22:20,1.070,1.811,1.180,2.049,1.428,0.559,1.027,0.953,�k,2.6,��
2017/02/03,22:30,1.071,1.809,1.182,2.053,1.430,0.559,1.026,0.951,�k�k��,2.6,��
2017/02/03,22:40,1.071,1.810,1.180,2.051,1.427,0.560,1.025,0.952,�k�k��,3.3,��
2017/02/03,22:50,1.071,1.809,1.180,2.051,1.431,0.561,1.025,0.953,�k�k��,3.7,��
2017/02/03,23:00,1.070,1.810,1.181,2.053,1.427,0.559,1.025,0.951,�k,3.1,��
2017/02/03,23:10,1.070,1.814,1.182,2.050,1.429,0.560,1.026,0.952,�k�k��,2.9,��
2017/02/03,23:20,1.071,1.811,1.180,2.053,1.429,0.559,1.025,0.954,�k,2.5,��
2017/02/03,23:30,1.071,1.809,1.180,2.052,1.428,0.560,1.025,0.952,�k�k��,2.3,��
2017/02/03,23:40,1.070,1.811,1.182,2.052,1.427,0.560,1.026,0.951,�k�k��,1.4,��
2017/02/03,23:50,1.070,1.807,1.179,2.051,1.430,0.560,1.026,0.953,���k��,1.5,��
